Lapse_Rate
7.2 7.3 7.5 7.7 7.7 7.5 7.5 7.4 7.5 7.4 7.3 7.3 7.3 7.2 7.1 7.1 7.1 7.1 7.0 7.0 7.0 6.9 6.8 6.8 6.8 6.8 6.7 6.5 6.3 6.3 6.4 6.6
7.5 7.6 7.6 7.6 7.4 7.3 7.2 7.3 7.3 7.2 7.1 7.1 7.0 7.0 7.1 7.0 7.0 7.0 6.9 6.8 6.8 6.7 6.7 6.6 6.6 6.6 6.6 6.5 6.4 6.1 6.0 6.2
7.2 7.2 7.2 7.2 7.1 7.1 7.1 7.1 7.2 7.1 7.1 7.1 7.1 7.1 7.1 7.1 7.0 6.9 6.9 6.8 6.7 6.7 6.6 6.6 6.6 6.5 6.4 6.4 6.5 6.5 6.3 6.1
6.9 6.8 6.8 6.8 6.8 6.8 6.9 6.9 6.9 7.0 7.1 7.1 7.0 6.9 6.8 6.7 6.6 6.5 6.6 6.6 6.5 6.4 6.3 6.3 6.3 6.3 6.2 6.2 6.2 6.3 6.4 6.3
6.7 6.7 6.7 6.7 6.7 6.8 6.8 6.9 6.9 6.9 6.8 6.7 6.6 6.5 6.5 6.4 6.3 6.2 6.2 6.2 6.2 6.3 6.3 6.3 6.3 6.4 6.3 6.2 6.0 6.0 6.0 6.2
6.7 6.7 6.6 6.5 6.6 6.7 6.7 6.7 6.6 6.5 6.5 6.5 6.5 6.4 6.4 6.4 6.3 6.2 6.1 6.1 6.0 6.0 6.0 6.0 6.0 6.1 6.2 6.3 6.3 6.2 6.0 6.0
6.6 6.4 6.3 6.4 6.4 6.6 6.6 6.5 6.5 6.4 6.4 6.5 6.5 6.4 6.3 6.3 6.3 6.2 6.2 6.1 6.0 6.0 6.1 6.1 6.1 6.1 6.0 6.0 6.1 6.3 6.4 6.3
6.4 6.3 6.3 6.4 6.4 6.3 6.4 6.3 6.3 6.3 6.4 6.4 6.4 6.4 6.3 6.2 6.2 6.1 6.1 6.0 6.1 6.1 6.2 6.2 6.2 6.2 6.2 6.2 6.2 6.2 6.2 6.3
6.5 6.4 6.5 6.4 6.4 6.4 6.3 6.3 6.3 6.3 6.2 6.2 6.3 6.3 6.3 6.2 6.1 6.1 6.2 6.2 6.2 6.2 6.3 6.3 6.3 6.3 6.4 6.6 6.6 6.6 6.5 6.4
6.6 6.5 6.4 6.2 6.2 6.3 6.3 6.3 6.2 6.2 6.2 6.3 6.3 6.2 6.2 6.2 6.1 6.1 6.0 6.0 6.0 6.1 6.1 6.1 6.1 6.3 6.4 6.4 6.4 6.5 6.5 6.4
6.7 6.5 6.3 6.2 6.3 6.3 6.2 6.2 6.1 6.1 6.3 6.4 6.4 6.1 6.1 6.1 6.0 5.9 5.8 5.7 5.8 5.9 6.0 6.1 6.2 6.2 6.3 6.5 6.6 6.6 6.5 6.4
6.7 6.6 6.4 6.4 6.3 6.2 6.1 6.1 6.2 6.4 6.5 6.4 6.3 6.1 6.1 6.1 5.9 5.8 5.4 5.1 5.1 5.4 5.7 5.6 5.5 5.6 5.8 6.0 6.1 6.2 6.2 6.1
6.6 6.5 6.4 6.3 6.1 6.1 6.1 6.2 6.4 6.4 6.3 6.2 6.2 6.1 6.0 5.7 5.5 5.2 5.0 4.9 5.0 5.4 5.9 6.0 5.7 5.6 5.8 6.1 6.3 6.0 5.9 6.0
6.7 6.4 6.2 6.1 6.1 6.1 6.2 6.2 6.2 6.3 6.4 6.3 6.0 5.9 5.7 5.5 5.3 5.2 5.3 5.4 5.3 5.4 5.4 5.6 5.5 5.5 6.0 6.6 6.9 6.9 6.5 5.8
6.5 6.2 6.1 6.0 6.0 6.2 6.1 6.1 6.1 6.3 6.4 6.3 6.2 6.1 5.9 5.7 5.6 5.5 5.5 5.6 5.5 5.5 5.4 5.5 5.9 6.1 6.1 6.2 6.5 6.6 6.5 5.9
6.3 6.2 6.0 5.9 6.0 5.9 6.0 6.1 6.3 6.6 6.7 6.6 6.4 6.2 5.9 5.7 5.7 5.7 5.7 5.7 5.7 5.7 5.7 5.9 6.4 6.2 6.2 5.8 5.5 5.3 5.6 6.6
6.3 6.1 5.8 5.8 5.9 5.8 5.9 6.3 6.8 7.0 6.8 6.7 6.6 6.1 5.9 5.9 6.0 5.9 6.0 5.9 6.1 6.1 6.3 6.5 6.2 6.3 6.0 5.8 5.8 5.2 4.7 5.4
6.1 6.0 5.8 5.9 6.1 6.0 6.4 7.0 7.1 7.1 7.0 6.7 6.3 6.0 5.9 6.1 6.2 6.3 6.3 6.5 6.6 6.8 6.6 6.4 6.3 6.2 6.1 5.8 5.6 5.6 5.0 5.4
6.1 5.8 6.0 6.2 6.0 6.4 7.0 7.2 7.1 7.0 6.8 6.6 6.3 6.1 6.1 6.3 6.4 6.6 6.9 7.1 7.1 7.1 6.8 6.5 6.3 6.1 6.3 6.0 5.7 5.3 5.1 5.1
5.9 6.1 6.3 6.1 6.4 7.0 7.2 7.1 7.0 7.0 6.7 6.6 6.5 6.3 6.3 6.5 6.7 7.0 7.3 7.3 7.4 7.3 7.0 7.0 6.6 6.2 6.4 6.2 5.8 5.4 5.2 4.8
Wind_Speed
11 11 15 20 22 23 23 24 24 24 23 22 21 21 20 20 20 21 21 20 20 20 20 19 19 18 18 19 18 16 16 13
10 10 12 15 18 21 23 23 23 23 23 21 18 18 19 19 20 21 21 21 21 21 21 20 20 17 18 19 21 16 12 16
9 10 11 15 16 16 19 21 21 20 18 19 18 16 17 17 19 20 21 22 21 21 21 19 18 15 16 19 17 10 13 13
8 9 10 13 13 15 16 17 18 18 17 17 14 13 14 13 14 17 18 22 18 21 20 20 17 15 14 14 11 14 13 13
7 9 11 12 12 12 12 13 12 14 17 15 12 11 12 13 12 14 15 18 16 18 17 15 17 16 15 14 15 14 12 13
8 10 11 12 11 12 11 11 12 12 14 15 13 12 13 13 12 14 13 15 15 15 13 16 16 17 17 17 17 16 14 15
8 9 9 10 11 11 11 11 12 12 12 15 13 11 10 11 11 12 13 15 15 15 15 15 15 16 17 16 17 18 19 18
8 8 9 10 11 11 11 11 11 12 13 14 15 13 12 11 11 12 13 16 16 15 15 14 12 16 13 17 17 19 19 20
9 8 9 10 11 11 10 10 11 12 12 14 14 13 12 11 10 10 13 14 15 15 15 15 11 13 14 14 17 18 18 20
9 7 9 9 10 9 10 10 11 10 10 9 12 12 12 10 9 10 14 14 14 12 9 10 10 11 12 12 12 15 18 20
10 9 8 8 10 10 11 11 10 9 8 9 11 12 12 11 10 11 14 12 10 9 9 9 11 11 12 12 13 12 14 14
11 8 9 9 9 8 8 8 7 7 7 9 11 12 12 11 9 10 12 8 7 8 11 10 10 11 13 13 13 12 10 10
11 9 8 7 5 4 3 3 3 4 7 9 10 11 11 11 9 9 11 7 8 9 9 12 10 11 11 13 9 10 4 9
10 9 8 6 4 3 2 4 3 5 6 9 10 10 10 10 9 8 9 7 9 10 11 9 8 9 8 9 8 6 8 16
11 9 7 5 6 5 5 5 4 2 4 4 7 8 9 10 10 9 9 8 7 9 9 11 8 9 9 4 5 5 14 6
11 10 8 6 6 5 4 3 3 2 2 2 3 7 7 10 10 10 10 10 9 8 7 9 9 9 8 3 8 9 3 8
11 10 8 6 5 5 5 5 4 3 2 3 5 6 7 9 11 11 11 10 9 9 9 9 7 7 8 8 9 8 9 6
12 11 9 7 6 6 6 7 5 4 4 5 4 4 5 11 12 11 11 10 9 8 9 10 9 8 8 9 8 5 6 6
12 12 9 7 7 6 6 6 7 6 5 4 5 4 5 9 12 10 9 10 10 11 8 8 9 9 10 9 8 9 8 7
15 13 12 9 7 7 5 7 5 4 5 4 3 4 5 10 10 10 10 10 10 10 5 7 9 9 11 11 9 8 8 7
Wind_Direction
85 86 80 80 79 79 76 73 72 69 65 62 58 53 48 43 39 35 32 29 25 20 15 9 3 2 358 358 346 317 276 258
88 85 87 87 84 78 75 74 70 66 62 57 54 49 43 38 34 29 27 23 19 16 11 7 359 354 351 348 342 316 282 266
75 77 79 84 86 80 76 71 64 59 54 48 46 40 32 29 28 23 20 15 11 7 3 358 354 349 345 341 335 325 313 280
66 73 78 85 81 74 71 65 61 56 51 47 45 40 33 26 22 18 14 9 3 358 354 350 351 341 332 333 327 319 306 291
74 78 72 76 74 72 66 63 61 55 47 42 41 38 29 25 18 14 8 5 1 353 350 349 339 334 326 319 315 308 298 293
87 81 82 77 82 76 76 71 63 55 46 38 35 31 26 22 18 11 8 1 353 350 343 335 329 324 319 312 307 301 294 290
95 95 90 84 80 80 74 69 63 60 53 43 39 37 30 20 17 11 4 355 352 344 339 333 325 320 314 310 306 300 294 290
114 98 91 90 86 81 79 72 66 60 53 42 39 34 25 19 14 9 2 353 346 338 334 328 323 319 313 311 303 299 294 288
123 114 105 100 94 88 81 73 66 57 51 43 38 34 24 17 12 5 357 346 339 336 332 328 321 318 311 308 305 297 292 289
133 123 116 106 102 93 85 73 67 60 54 47 40 34 25 18 11 4 353 347 343 341 338 331 326 319 314 310 304 301 293 285
135 135 129 120 109 100 88 77 68 60 51 43 35 33 23 15 10 1 351 346 345 340 335 331 321 319 315 309 304 296 292 290
146 147 145 138 122 110 95 83 74 64 54 45 37 32 21 13 6 359 354 348 350 345 337 335 324 324 321 311 308 295 293 295
153 152 158 162 157 159 140 111 99 70 55 46 40 31 19 12 6 358 356 353 347 347 341 337 334 338 324 329 311 308 293 337
157 159 164 174 154 134 129 156 108 75 52 46 36 24 16 10 6 3 358 351 353 352 345 341 333 350 334 314 337 324 345 323
166 159 144 138 133 132 131 120 118 107 44 38 30 21 16 11 9 7 1 359 355 351 343 343 330 337 349 319 328 322 333 305
162 149 150 147 163 164 148 117 124 94 70 35 28 29 20 15 9 6 8 3 358 346 345 344 342 333 330 342 303 294 313 318
157 155 152 154 139 125 110 114 126 136 113 54 43 30 20 13 11 10 11 4 356 342 349 354 342 330 327 322 314 306 270 263
161 158 153 145 136 120 139 154 139 112 60 43 28 7 7 19 11 11 8 4 350 350 354 353 351 343 337 325 317 312 307 290
163 161 155 153 138 151 161 129 95 76 59 43 23 6 17 13 8 6 2 360 354 359 358 353 0 352 338 326 315 304 297 302
165 165 159 158 164 163 141 104 96 85 68 53 36 28 27 12 7 7 0 360 1 0 0 3 1 356 348 341 325 317 308 303